Location: Newark
(28.9833°N, 10.0667°W)
Time: 12:18:07
(UTC+00:00)

Hubble Space Telescope - Pass Details

Date: 16 December 2019
Orbit: 536 x 540 km, 28.5° (Epoch: 20 January)

Event Time Altitude Azimuth Distance (km) Brightness Sun altitude
Exits shadow 06:29:53 14° 257° (WSW) 1,562 2.6 -12.2°
Maximum altitude 06:33:25 75° 173° (S) 556 0.9 -11.5°
Drops below altitude 10° 06:37:33 10° 88° (E) 1,786 4.6 -10.7°
Sets 06:39:49 0° 86° (E) 2,678 5.7 -10.2°
